Weather History for KAST - August, 2013

Change the Weather History Date:

Sunday, August 25, 2013

  Actual Average Record
Temperature  
Mean Temperature 59 °F 61 °F  
Max Temperature 70 °F 69 °F 89 °F (1933)
Min Temperature 48 °F 53 °F 43 °F (1992)
Degree Days  
Heating Degree Days 6 4  
Month to date heating degree days 95 100  
Since 1 June heating degree days 418 492  
Since 1 July heating degree days 237 250  
Cooling Degree Days 0 0  
Month to date cooling degree days 0 0  
Year to date cooling degree days 4 3  
Since 1 June cooling degree days 3 3  
Growing Degree Days 9 (Base 50)    
Moisture  
Dew Point 52 °F    
Average Humidity 78    
Maximum Humidity 100    
Minimum Humidity 55    
Precipitation  
Precipitation 0.00 in 0.05 in 0.96 in (2004)
Month to date precipitation 0.33 0.84  
Year to date precipitation 35.33 37.78  
Snow  
Snow 0.00 in - - ()
Month to date snowfall 0.0  
Since 1 June snowfall 0.0  
Snow Depth 0.00 in    
Sea Level Pressure  
Sea Level Pressure 29.92 in    
Wind  
Wind Speed 4 mph (SSE)    
Max Wind Speed 12 mph    
Max Gust Speed 14 mph    
Visibility 6 miles    
Events Fog    
T = Trace of Precipitation, MM = Missing Value Source: NWS Daily Summary

Daily Weather History Graph

Daily Weather History Graph

Search for Another Location

Airport or City:

Trip Planner

Search our weather history database for the weather conditions in past years. The results will help you decide how hot, cold, wet, or windy it might be!

Date:

Astronomy

Aug. 25, 2013 Rise Set
Actual Time 6:27 AM PDT 8:06 PM PDT
Civil Twilight 5:56 AM PDT 8:37 PM PDT
Nautical Twilight 5:17 AM PDT 9:16 PM PDT
Astronomical Twilight 4:35 AM PDT 9:57 PM PDT
Moon 10:19 PM PDT (8/25) 11:56 AM PDT (8/25)
Length of Visible Light 14h 41m
Length of Day
13h 38m
Waning Gibbous, 75% of the Moon is Illuminated
Aug 25
Waning Gibbous
Aug 28
Last Quarter
Sep 5
New
Sep 12
First Quarter
Sep 19
Full

Hourly Weather History & Observations

Time (PDT) Temp. Dew Point Humidity Pressure Visibility Wind Dir Wind Speed Gust Speed Precip Events Conditions
12:55 AM 53.1 °F 52.0 °F 96% 29.94 in 7.0 mi Calm Calm - N/A   Clear
1:55 AM 54.0 °F 53.1 °F 97% 29.94 in 9.0 mi Calm Calm - N/A   Clear
2:14 AM 53.6 °F 51.8 °F 94% 29.94 in 2.5 mi SE 3.5 mph - N/A   Partly Cloudy
2:22 AM 51.8 °F 51.8 °F 100% 29.93 in 1.5 mi SE 3.5 mph - N/A   Scattered Clouds
2:27 AM 51.8 °F 51.8 °F 100% 29.93 in 4.0 mi SSE 3.5 mph - N/A   Partly Cloudy
2:55 AM 53.1 °F 52.0 °F 96% 29.93 in 8.0 mi Calm Calm - N/A   Partly Cloudy
3:09 AM 51.8 °F 50.0 °F 94% 29.93 in 4.0 mi ESE 3.5 mph - N/A   Mostly Cloudy
3:11 AM 51.8 °F 50.0 °F 94% 29.93 in 1.8 mi SE 4.6 mph - N/A   Mostly Cloudy
3:13 AM 51.8 °F 51.8 °F 100% 29.93 in 0.8 mi SE 3.5 mph - N/A   Mist
3:26 AM 51.8 °F 51.8 °F 100% 29.93 in 0.2 mi SE 3.5 mph - N/A Fog Fog
3:36 AM 51.8 °F 51.8 °F 100% 29.93 in 0.5 mi Calm Calm - N/A Fog Fog
3:55 AM 51.1 °F 51.1 °F 100% 29.93 in 0.2 mi Calm Calm - N/A Fog Fog
4:55 AM 50.0 °F 50.0 °F 100% 29.93 in 0.2 mi Calm Calm - N/A Fog Fog
5:11 AM 50.0 °F 50.0 °F 100% 29.93 in 0.8 mi Calm Calm - N/A   Mist
5:19 AM 50.0 °F 50.0 °F 100% 29.93 in 1.0 mi Calm Calm - N/A   Mist
5:29 AM 50.0 °F 48.2 °F 94% 29.93 in 2.0 mi Calm Calm - N/A   Mostly Cloudy
5:32 AM 50.0 °F 50.0 °F 100% 29.93 in 4.0 mi Calm Calm - N/A   Scattered Clouds
5:55 AM 48.9 °F 48.9 °F 100% 29.93 in 1.5 mi SE 3.5 mph - N/A   Scattered Clouds
5:57 AM 48.2 °F 48.2 °F 100% 29.92 in 1.0 mi Calm Calm - N/A   Mist
6:06 AM 48.2 °F 48.2 °F 100% 29.92 in 0.5 mi SE 3.5 mph - N/A Fog Fog
6:38 AM 48.2 °F 48.2 °F 100% 29.93 in 1.2 mi Calm Calm - N/A   Mostly Cloudy
6:41 AM 48.2 °F 48.2 °F 100% 29.93 in 2.0 mi SE 3.5 mph - N/A   Mostly Cloudy
6:43 AM 48.2 °F 48.2 °F 100% 29.93 in 4.0 mi SSE 3.5 mph - N/A   Scattered Clouds
6:55 AM 48.9 °F 48.9 °F 100% 29.93 in 10.0 mi SSE 3.5 mph - N/A   Partly Cloudy
7:55 AM 51.1 °F 51.1 °F 100% 29.93 in 10.0 mi Calm Calm - N/A   Clear
8:55 AM 57.9 °F 55.0 °F 90% 29.93 in 10.0 mi Calm Calm - N/A   Clear
9:55 AM 60.1 °F 55.9 °F 86% 29.93 in 10.0 mi Variable 3.5 mph - N/A   Clear
10:55 AM 63.0 °F 54.0 °F 72% 29.93 in 10.0 mi Variable 3.5 mph - N/A   Clear
11:55 AM 64.9 °F 55.0 °F 70% 29.93 in 10.0 mi Calm Calm - N/A   Clear
12:55 PM 64.0 °F 55.9 °F 75% 29.92 in 10.0 mi West 4.6 mph - N/A   Clear
1:55 PM 64.9 °F 55.9 °F 73% 29.91 in 10.0 mi NNW 8.1 mph - N/A   Clear
2:55 PM 69.1 °F 55.9 °F 63% 29.91 in 10.0 mi NNW 9.2 mph - N/A   Clear
3:55 PM 66.9 °F 54.0 °F 63% 29.91 in 10.0 mi NNW 9.2 mph - N/A   Scattered Clouds
4:55 PM 68.0 °F 51.1 °F 55% 29.91 in 10.0 mi NNW 9.2 mph - N/A   Partly Cloudy
5:55 PM 66.0 °F 51.1 °F 59% 29.90 in 10.0 mi NW 9.2 mph - N/A   Mostly Cloudy
6:55 PM 66.0 °F 51.1 °F 59% 29.90 in 10.0 mi WNW 5.8 mph - N/A   Partly Cloudy
7:55 PM 61.0 °F 54.0 °F 78% 29.90 in 10.0 mi WSW 4.6 mph - N/A   Clear
8:55 PM 59.0 °F 55.0 °F 87% 29.91 in 10.0 mi SSW 3.5 mph - N/A   Clear
9:55 PM 57.9 °F 55.9 °F 93% 29.91 in 10.0 mi SW 3.5 mph - N/A   Clear
10:55 PM 57.9 °F 55.0 °F 90% 29.92 in 10.0 mi Calm Calm - N/A   Mostly Cloudy
11:55 PM 55.9 °F 55.0 °F 97% 29.91 in 10.0 mi Calm Calm - N/A   Mostly Cloudy